Time,TemperatureF,DewpointF,PressureIn,WindDirection,WindDirectionDegrees,WindSpeedMPH,WindSpeedGustMPH,Humidity,HourlyPrecipIn,Conditions,Clouds,dailyrainin,SolarRadiationWatts/m^2,SoftwareType,DateUTC
2013-10-05 00:02:00,70.0,9.0,-100.00,East,95,5.0,19.0,9,0.00,,,0.00,0.000000,,2013-10-05 07:02:00,
2013-10-05 00:12:00,70.0,9.0,-100.00,East,95,5.0,19.0,9,0.00,,,0.00,0.000000,,2013-10-05 07:12:00,
2013-10-05 00:22:00,70.0,9.0,-100.00,East,95,5.0,19.0,9,0.00,,,0.00,0.000000,,2013-10-05 07:22:00,
2013-10-05 00:52:00,68.0,7.0,-100.00,East,93,6.0,21.0,9,0.00,,,0.00,0.000000,,2013-10-05 07:52:00,
2013-10-05 01:02:00,68.0,7.0,-100.00,East,93,6.0,21.0,9,0.00,,,0.00,0.000000,,2013-10-05 08:02:00,
2013-10-05 01:12:00,68.0,7.0,-100.00,East,93,6.0,21.0,9,0.00,,,0.00,0.000000,,2013-10-05 08:12:00,
2013-10-05 01:23:00,68.0,7.0,-100.00,East,93,6.0,21.0,9,0.00,,,0.00,0.000000,,2013-10-05 08:23:00,
2013-10-05 01:52:00,69.0,8.0,-100.00,East,85,4.0,20.0,9,0.00,,,0.00,0.000000,,2013-10-05 08:52:00,
2013-10-05 02:02:00,69.0,8.0,-100.00,East,85,4.0,20.0,9,0.00,,,0.00,0.000000,,2013-10-05 09:02:00,
2013-10-05 02:11:00,69.0,8.0,-100.00,East,85,4.0,20.0,9,0.00,,,0.00,0.000000,,2013-10-05 09:11:00,
2013-10-05 02:54:00,65.0,7.0,-100.00,East,85,0.0,15.0,10,0.00,,,0.00,0.000000,,2013-10-05 09:54:00,
2013-10-05 03:03:00,65.0,7.0,-100.00,East,85,0.0,15.0,10,0.00,,,0.00,0.000000,,2013-10-05 10:03:00,
2013-10-05 03:12:00,65.0,7.0,-100.00,East,85,0.0,15.0,10,0.00,,,0.00,0.000000,,2013-10-05 10:12:00,
2013-10-05 03:23:00,65.0,7.0,-100.00,East,85,0.0,15.0,10,0.00,,,0.00,0.000000,,2013-10-05 10:23:00,
2013-10-05 03:53:00,59.0,6.0,-100.00,SE,131,0.0,12.0,12,0.00,,,0.00,0.000000,,2013-10-05 10:53:00,
2013-10-05 04:02:00,59.0,6.0,-100.00,SE,131,0.0,12.0,12,0.00,,,0.00,0.000000,,2013-10-05 11:02:00,
2013-10-05 04:11:00,59.0,6.0,-100.00,SE,131,0.0,12.0,12,0.00,,,0.00,0.000000,,2013-10-05 11:11:00,
2013-10-05 04:22:00,59.0,6.0,-100.00,SE,131,0.0,12.0,12,0.00,,,0.00,0.000000,,2013-10-05 11:22:00,
2013-10-05 04:52:00,57.0,7.0,-100.00,SE,128,1.0,6.0,13,0.00,,,0.00,0.000000,,2013-10-05 11:52:00,
2013-10-05 05:01:00,57.0,7.0,-100.00,SE,128,1.0,6.0,13,0.00,,,0.00,0.000000,,2013-10-05 12:01:00,
2013-10-05 05:12:00,57.0,7.0,-100.00,SE,128,1.0,6.0,13,0.00,,,0.00,0.000000,,2013-10-05 12:12:00,
2013-10-05 05:22:00,57.0,7.0,-100.00,SE,128,1.0,6.0,13,0.00,,,0.00,0.000000,,2013-10-05 12:22:00,
2013-10-05 05:53:00,53.0,8.0,-100.00,SE,127,0.0,7.0,16,0.00,,,-99.99,0.000000,,2013-10-05 12:53:00,
2013-10-05 06:02:00,53.0,8.0,-100.00,SE,127,0.0,7.0,16,0.00,,,-99.99,0.000000,,2013-10-05 13:02:00,
2013-10-05 06:12:00,53.0,8.0,-100.00,SE,127,0.0,7.0,16,0.00,,,-99.99,0.000000,,2013-10-05 13:12:00,
2013-10-05 06:52:00,54.0,10.0,-100.00,North,7,0.0,7.0,17,0.00,,,0.00,0.000000,,2013-10-05 13:52:00,
2013-10-05 07:02:00,54.0,10.0,-100.00,North,7,0.0,7.0,17,0.00,,,0.00,0.000000,,2013-10-05 14:02:00,
2013-10-05 07:11:00,54.0,10.0,-100.00,North,7,0.0,7.0,17,0.00,,,0.00,0.000000,,2013-10-05 14:11:00,
2013-10-05 07:52:00,54.0,10.0,-100.00,ESE,112,1.0,8.0,17,-99.99,,,0.00,1.000000,,2013-10-05 14:52:00,
2013-10-05 08:02:00,54.0,10.0,-100.00,ESE,112,1.0,8.0,17,-99.99,,,0.00,1.000000,,2013-10-05 15:02:00,
2013-10-05 08:12:00,54.0,10.0,-100.00,ESE,112,1.0,8.0,17,-99.99,,,0.00,1.000000,,2013-10-05 15:12:00,
2013-10-05 08:21:00,54.0,10.0,-100.00,ESE,112,1.0,8.0,17,-99.99,,,0.00,1.000000,,2013-10-05 15:21:00,
2013-10-05 08:53:00,59.0,10.0,-100.00,East,93,3.0,7.0,14,0.00,,,0.00,19.000000,,2013-10-05 15:53:00,
2013-10-05 09:03:00,59.0,10.0,-100.00,East,93,3.0,7.0,14,0.00,,,0.00,19.000000,,2013-10-05 16:03:00,
2013-10-05 09:13:00,59.0,10.0,-100.00,East,93,3.0,7.0,14,0.00,,,0.00,19.000000,,2013-10-05 16:13:00,
2013-10-05 09:23:00,59.0,10.0,-100.00,East,93,3.0,7.0,14,0.00,,,0.00,19.000000,,2013-10-05 16:23:00,
2013-10-05 09:53:00,68.0,9.0,-100.00,NNE,20,2.0,13.0,10,0.00,,,0.00,140.000000,,2013-10-05 16:53:00,
2013-10-05 10:02:00,68.0,9.0,-100.00,NNE,20,2.0,13.0,10,0.00,,,0.00,140.000000,,2013-10-05 17:02:00,
2013-10-05 10:12:00,68.0,9.0,-100.00,NNE,20,2.0,13.0,10,0.00,,,0.00,140.000000,,2013-10-05 17:12:00,
2013-10-05 10:22:00,68.0,9.0,-100.00,NNE,20,2.0,13.0,10,0.00,,,0.00,140.000000,,2013-10-05 17:22:00,
2013-10-05 10:52:00,73.0,8.0,-100.00,East,93,8.0,20.0,8,0.00,,,0.00,575.000000,,2013-10-05 17:52:00,
2013-10-05 11:02:00,73.0,8.0,-100.00,East,93,8.0,20.0,8,0.00,,,0.00,575.000000,,2013-10-05 18:02:00,
2013-10-05 11:12:00,73.0,8.0,-100.00,East,93,8.0,20.0,8,0.00,,,0.00,575.000000,,2013-10-05 18:12:00,
2013-10-05 11:21:00,73.0,8.0,-100.00,East,93,8.0,20.0,8,0.00,,,0.00,575.000000,,2013-10-05 18:21:00,
2013-10-05 11:52:00,79.0,6.0,-100.00,ENE,78,3.0,21.0,6,0.00,,,0.00,861.000000,,2013-10-05 18:52:00,
2013-10-05 12:02:00,79.0,6.0,-100.00,ENE,78,3.0,21.0,6,0.00,,,0.00,861.000000,,2013-10-05 19:02:00,
2013-10-05 12:11:00,79.0,6.0,-100.00,ENE,78,3.0,21.0,6,0.00,,,0.00,861.000000,,2013-10-05 19:11:00,
2013-10-05 12:22:00,79.0,6.0,-100.00,ENE,78,3.0,21.0,6,0.00,,,0.00,861.000000,,2013-10-05 19:22:00,
2013-10-05 15:12:00,85.0,14.0,-100.00,West,280,4.0,14.0,7,-99.99,,,0.00,1029.000000,,2013-10-05 22:12:00,
2013-10-05 15:24:00,85.0,14.0,-100.00,West,280,4.0,14.0,7,-99.99,,,0.00,1029.000000,,2013-10-05 22:24:00,
2013-10-05 15:53:00,85.0,17.0,-100.00,NE,56,3.0,15.0,8,0.00,,,0.00,917.000000,,2013-10-05 22:53:00,
2013-10-05 16:02:00,85.0,17.0,-100.00,NE,56,3.0,15.0,8,0.00,,,0.00,917.000000,,2013-10-05 23:02:00,
2013-10-05 16:13:00,85.0,17.0,-100.00,NE,56,3.0,15.0,8,0.00,,,0.00,917.000000,,2013-10-05 23:13:00,
2013-10-05 16:22:00,85.0,17.0,-100.00,NE,56,3.0,15.0,8,0.00,,,0.00,917.000000,,2013-10-05 23:22:00,
2013-10-05 17:22:00,86.0,18.0,-100.00,WSW,255,2.0,10.0,8,-99.99,,,0.00,730.000000,,2013-10-06 00:22:00,
2013-10-05 17:52:00,84.0,16.0,-100.00,WSW,257,5.0,9.0,8,-99.99,,,0.00,487.000000,,2013-10-06 00:52:00,
2013-10-05 18:02:00,84.0,16.0,-100.00,WSW,257,5.0,9.0,8,-99.99,,,0.00,487.000000,,2013-10-06 01:02:00,
2013-10-05 18:11:00,84.0,16.0,-100.00,WSW,257,5.0,9.0,8,-99.99,,,0.00,487.000000,,2013-10-06 01:11:00,
2013-10-05 18:22:00,84.0,16.0,-100.00,WSW,257,5.0,9.0,8,-99.99,,,0.00,487.000000,,2013-10-06 01:22:00,
2013-10-05 18:52:00,80.0,19.0,-100.00,SW,234,4.0,12.0,10,-99.99,,,0.00,204.000000,,2013-10-06 01:52:00,
2013-10-05 19:02:00,80.0,19.0,-100.00,SW,234,4.0,12.0,10,-99.99,,,0.00,204.000000,,2013-10-06 02:02:00,
2013-10-05 19:11:00,80.0,19.0,-100.00,SW,234,4.0,12.0,10,-99.99,,,0.00,204.000000,,2013-10-06 02:11:00,
2013-10-05 19:22:00,80.0,19.0,-100.00,SW,234,4.0,12.0,10,-99.99,,,0.00,204.000000,,2013-10-06 02:22:00,
2013-10-05 19:53:00,67.0,15.0,-100.00,SE,135,0.0,11.0,13,0.00,,,0.00,8.000000,,2013-10-06 02:53:00,
2013-10-05 20:02:00,67.0,15.0,-100.00,SE,135,0.0,11.0,13,0.00,,,0.00,8.000000,,2013-10-06 03:02:00,
2013-10-05 20:12:00,67.0,15.0,-100.00,SE,135,0.0,11.0,13,0.00,,,0.00,8.000000,,2013-10-06 03:12:00,
2013-10-05 20:22:00,67.0,15.0,-100.00,SE,135,0.0,11.0,13,0.00,,,0.00,8.000000,,2013-10-06 03:22:00,
2013-10-05 20:54:00,65.0,18.0,-100.00,SSE,148,0.0,6.0,16,0.00,,,0.00,0.000000,,2013-10-06 03:54:00,
2013-10-05 21:13:00,65.0,18.0,-100.00,SSE,148,0.0,6.0,16,0.00,,,0.00,0.000000,,2013-10-06 04:13:00,
2013-10-05 21:23:00,65.0,18.0,-100.00,SSE,148,0.0,6.0,16,0.00,,,0.00,0.000000,,2013-10-06 04:23:00,
2013-10-05 21:54:00,63.0,19.0,-100.00,SE,126,0.0,5.0,18,0.00,,,0.00,0.000000,,2013-10-06 04:54:00,
2013-10-05 22:03:00,63.0,19.0,-100.00,SE,126,0.0,5.0,18,0.00,,,0.00,0.000000,,2013-10-06 05:03:00,
2013-10-05 22:13:00,63.0,19.0,-100.00,SE,126,0.0,5.0,18,0.00,,,0.00,0.000000,,2013-10-06 05:13:00,
2013-10-05 22:22:00,63.0,19.0,-100.00,SE,126,0.0,5.0,18,0.00,,,0.00,0.000000,,2013-10-06 05:22:00,
2013-10-05 22:52:00,59.0,13.0,-100.00,ESE,112,0.0,5.0,16,0.00,,,0.00,0.000000,,2013-10-06 05:52:00,
2013-10-05 23:02:00,59.0,13.0,-100.00,ESE,112,0.0,5.0,16,0.00,,,0.00,0.000000,,2013-10-06 06:02:00,
2013-10-05 23:12:00,59.0,13.0,-100.00,ESE,112,0.0,5.0,16,0.00,,,0.00,0.000000,,2013-10-06 06:12:00,
2013-10-05 23:21:00,59.0,13.0,-100.00,ESE,112,0.0,5.0,16,0.00,,,0.00,0.000000,,2013-10-06 06:21:00,
2013-10-05 23:52:00,61.0,10.0,-100.00,South,170,0.0,15.0,13,0.00,,,0.00,0.000000,,2013-10-06 06:52:00,